User: anonymous   Login
Location: Mt. Chestnut Observatory
(40.9038°N, 79.9956°W)
Time: 03:52:51
(UTC-04:00)
Language:

Cosmos 2034 Rocket - Orbit

View from above orbital plane
View from above orbital plane
View from above satellite
View from above satellite

Ground track
Ground track

The orbit data is extracted from the following two-line orbital elements,

1 20150U 89059B   16209.84170456 +.00000003 +00000-0 -12864-4 0  9991
2 20150 082.9415 334.7005 0030260 107.6009 047.5307 13.75618182355589
Epoch (UTC): 27 July 2016 20:12:03
Eccentricity: 0.0030260
inclination: 82.9415°
perigee height: 957 km
apogee height: 1002 km
right ascension of ascending node: 334.7005°
argument of perigee: 107.6009°
revolutions per day: 13.75618182
mean anomaly at epoch: 47.5307°
orbit number at epoch: 35558

The dashed part of the orbit path shows where the satellite is in the earth's shadow,  

DLR